Time,TemperatureF,DewpointF,PressureIn,WindDirection,WindDirectionDegrees,WindSpeedMPH,WindSpeedGustMPH,Humidity,HourlyPrecipIn,Conditions,Clouds,dailyrainin,SoftwareType,DateUTC
2013-04-25 00:02:00,41.0,-99.9,29.78,SE,132,6.0,8.0,-999,-99.99,,,-99.99,,2013-04-25 08:02:00,
2013-04-25 00:11:00,41.0,-99.9,29.78,SE,135,4.0,9.0,-999,-99.99,,,-99.99,,2013-04-25 08:11:00,
2013-04-25 00:22:00,41.0,-99.9,29.78,ESE,103,5.0,11.0,-999,-99.99,,,-99.99,,2013-04-25 08:22:00,
2013-04-25 00:32:00,41.0,-99.9,29.77,SSE,148,8.0,10.0,-999,-99.99,,,-99.99,,2013-04-25 08:32:00,
2013-04-25 00:42:00,41.0,-99.9,29.77,SE,128,5.0,8.0,-999,-99.99,,,-99.99,,2013-04-25 08:42:00,
2013-04-25 00:52:00,41.0,-99.9,29.76,SE,135,6.0,8.0,-999,-99.99,,,-99.99,,2013-04-25 08:52:00,
2013-04-25 01:01:00,40.0,-99.9,29.76,SSE,164,7.0,11.0,-999,-99.99,,,-99.99,,2013-04-25 09:01:00,
2013-04-25 01:11:00,41.0,-99.9,29.75,ESE,114,2.0,6.0,-999,-99.99,,,-99.99,,2013-04-25 09:11:00,
2013-04-25 01:22:00,41.0,-99.9,29.75,NE,47,3.0,6.0,-999,-99.99,,,-99.99,,2013-04-25 09:22:00,
2013-04-25 01:33:00,41.0,-99.9,29.75,SSE,151,3.0,5.0,-999,-99.99,,,-99.99,,2013-04-25 09:33:00,
2013-04-25 01:42:00,41.0,-99.9,29.75,SE,127,4.0,8.0,-999,-99.99,,,-99.99,,2013-04-25 09:42:00,
2013-04-25 01:53:00,41.0,-99.9,29.75,SE,129,8.0,12.0,-999,-99.99,,,-99.99,,2013-04-25 09:53:00,
2013-04-25 02:03:00,42.0,-99.9,29.74,SE,124,8.0,11.0,-999,-99.99,,,-99.99,,2013-04-25 10:03:00,
2013-04-25 02:12:00,41.0,-99.9,29.73,SE,130,9.0,14.0,-999,-99.99,,,-99.99,,2013-04-25 10:12:00,
2013-04-25 02:22:00,41.0,-99.9,29.74,SE,128,10.0,14.0,-999,-99.99,,,-99.99,,2013-04-25 10:22:00,
2013-04-25 02:33:00,41.0,-99.9,29.73,ESE,111,10.0,15.0,-999,-99.99,,,-99.99,,2013-04-25 10:33:00,
2013-04-25 02:42:00,41.0,-99.9,29.72,ESE,117,11.0,14.0,-999,-99.99,,,-99.99,,2013-04-25 10:42:00,
2013-04-25 02:53:00,41.0,-99.9,29.72,ESE,108,6.0,11.0,-999,-99.99,,,-99.99,,2013-04-25 10:53:00,
2013-04-25 03:02:00,41.0,-99.9,29.72,ESE,111,6.0,11.0,-999,-99.99,,,-99.99,,2013-04-25 11:02:00,
2013-04-25 03:12:00,41.0,-99.9,29.72,SE,125,8.0,12.0,-999,-99.99,,,-99.99,,2013-04-25 11:12:00,
2013-04-25 03:22:00,41.0,-99.9,29.71,East,91,5.0,12.0,-999,-99.99,,,-99.99,,2013-04-25 11:22:00,
2013-04-25 03:33:00,41.0,-99.9,29.70,ESE,117,8.0,13.0,-999,-99.99,,,-99.99,,2013-04-25 11:33:00,
2013-04-25 03:42:00,41.0,-99.9,29.70,East,98,5.0,12.0,-999,-99.99,,,-99.99,,2013-04-25 11:42:00,
2013-04-25 03:52:00,41.0,-99.9,29.70,ESE,103,6.0,11.0,-999,-99.99,,,-99.99,,2013-04-25 11:52:00,
2013-04-25 04:01:00,41.0,-99.9,29.70,ESE,110,5.0,9.0,-999,-99.99,,,-99.99,,2013-04-25 12:01:00,
2013-04-25 04:12:00,41.0,-99.9,29.69,ESE,112,4.0,8.0,-999,-99.99,,,-99.99,,2013-04-25 12:12:00,
2013-04-25 04:22:00,41.0,-99.9,29.68,East,100,7.0,9.0,-999,-99.99,,,-99.99,,2013-04-25 12:22:00,
2013-04-25 04:32:00,40.0,-99.9,29.68,East,86,5.0,13.0,-999,-99.99,,,-99.99,,2013-04-25 12:32:00,
2013-04-25 04:42:00,40.0,-99.9,29.67,East,91,8.0,11.0,-999,-99.99,,,-99.99,,2013-04-25 12:42:00,
2013-04-25 04:52:00,41.0,-99.9,29.68,ESE,110,9.0,13.0,-999,-99.99,,,-99.99,,2013-04-25 12:52:00,
2013-04-25 05:02:00,41.0,-99.9,29.67,East,100,8.0,12.0,-999,-99.99,,,-99.99,,2013-04-25 13:02:00,
2013-04-25 05:11:00,41.0,-99.9,29.66,East,92,11.0,18.0,-999,-99.99,,,-99.99,,2013-04-25 13:11:00,
2013-04-25 05:21:00,41.0,-99.9,29.65,East,94,9.0,15.0,-999,-99.99,,,-99.99,,2013-04-25 13:21:00,
2013-04-25 05:32:00,41.0,-99.9,29.65,East,88,11.0,17.0,-999,-99.99,,,-99.99,,2013-04-25 13:32:00,
2013-04-25 05:42:00,41.0,-99.9,29.64,ESE,106,9.0,15.0,-999,-99.99,,,-99.99,,2013-04-25 13:42:00,
2013-04-25 05:53:00,41.0,-99.9,29.64,East,95,9.0,12.0,-999,-99.99,,,-99.99,,2013-04-25 13:53:00,
2013-04-25 06:02:00,41.0,-99.9,29.63,East,92,9.0,15.0,-999,-99.99,,,-99.99,,2013-04-25 14:02:00,
2013-04-25 06:11:00,41.0,-99.9,29.63,ESE,102,10.0,14.0,-999,-99.99,,,-99.99,,2013-04-25 14:11:00,
2013-04-25 06:22:00,41.0,-99.9,29.62,East,101,9.0,15.0,-999,-99.99,,,-99.99,,2013-04-25 14:22:00,
2013-04-25 06:32:00,41.0,-99.9,29.62,ESE,114,9.0,16.0,-999,-99.99,,,-99.99,,2013-04-25 14:32:00,
2013-04-25 06:42:00,41.0,-99.9,29.61,ESE,111,10.0,16.0,-999,-99.99,,,-99.99,,2013-04-25 14:42:00,
2013-04-25 06:52:00,41.0,-99.9,29.61,ESE,114,11.0,16.0,-999,-99.99,,,-99.99,,2013-04-25 14:52:00,
2013-04-25 07:02:00,41.0,-99.9,29.60,SE,126,11.0,15.0,-999,-99.99,,,-99.99,,2013-04-25 15:02:00,
2013-04-25 07:11:00,41.0,-99.9,29.60,ESE,121,11.0,15.0,-999,-99.99,,,-99.99,,2013-04-25 15:11:00,
2013-04-25 07:21:00,41.0,-99.9,29.60,ESE,119,12.0,17.0,-999,-99.99,,,-99.99,,2013-04-25 15:21:00,
2013-04-25 07:33:00,41.0,-99.9,29.60,ESE,121,9.0,15.0,-999,-99.99,,,-99.99,,2013-04-25 15:33:00,
2013-04-25 07:42:00,41.0,-99.9,29.60,ESE,119,8.0,15.0,-999,-99.99,,,-99.99,,2013-04-25 15:42:00,
2013-04-25 07:53:00,41.0,-99.9,29.60,SE,132,9.0,12.0,-999,-99.99,,,-99.99,,2013-04-25 15:53:00,
2013-04-25 08:03:00,41.0,-99.9,29.60,SE,134,10.0,13.0,-999,-99.99,,,-99.99,,2013-04-25 16:03:00,
2013-04-25 08:13:00,41.0,-99.9,29.60,ESE,111,9.0,13.0,-999,-99.99,,,-99.99,,2013-04-25 16:13:00,
2013-04-25 08:24:00,41.0,-99.9,29.60,ESE,102,5.0,11.0,-999,-99.99,,,-99.99,,2013-04-25 16:24:00,
2013-04-25 08:33:00,40.0,-99.9,29.59,East,94,6.0,12.0,-999,-99.99,,,-99.99,,2013-04-25 16:33:00,
2013-04-25 08:43:00,40.0,-99.9,29.59,ESE,109,5.0,10.0,-999,-99.99,,,-99.99,,2013-04-25 16:43:00,
2013-04-25 08:53:00,40.0,-99.9,29.59,ESE,108,4.0,6.0,-999,-99.99,,,-99.99,,2013-04-25 16:53:00,
2013-04-25 09:02:00,40.0,-99.9,29.59,ENE,58,3.0,8.0,-999,-99.99,,,-99.99,,2013-04-25 17:02:00,
2013-04-25 09:12:00,40.0,-99.9,29.59,South,174,1.0,3.0,-999,-99.99,,,-99.99,,2013-04-25 17:12:00,
2013-04-25 09:22:00,39.0,-99.9,29.58,SSW,196,0.0,3.0,-999,-99.99,,,-99.99,,2013-04-25 17:22:00,
2013-04-25 09:32:00,39.0,-99.9,29.58,SSW,211,1.0,2.0,-999,-99.99,,,-99.99,,2013-04-25 17:32:00,
2013-04-25 09:42:00,39.0,-99.9,29.57,NE,54,1.0,3.0,-999,-99.99,,,-99.99,,2013-04-25 17:42:00,
2013-04-25 09:53:00,39.0,-99.9,29.57,SE,128,1.0,4.0,-999,-99.99,,,-99.99,,2013-04-25 17:53:00,
2013-04-25 10:02:00,39.0,-99.9,29.57,WSW,243,1.0,3.0,-999,-99.99,,,-99.99,,2013-04-25 18:02:00,
2013-04-25 10:11:00,39.0,-99.9,29.57,South,183,-999.0,2.0,-999,-99.99,,,-99.99,,2013-04-25 18:11:00,
2013-04-25 10:22:00,38.0,-99.9,29.57,South,170,1.0,2.0,-999,-99.99,,,-99.99,,2013-04-25 18:22:00,
2013-04-25 10:32:00,38.0,-99.9,29.57,SSW,204,0.0,3.0,-999,-99.99,,,-99.99,,2013-04-25 18:32:00,
2013-04-25 10:43:00,38.0,-99.9,29.57,South,181,2.0,3.0,-999,-99.99,,,-99.99,,2013-04-25 18:43:00,
2013-04-25 10:53:00,38.0,-99.9,29.57,NE,47,1.0,3.0,-999,-99.99,,,-99.99,,2013-04-25 18:53:00,
2013-04-25 11:02:00,39.0,-99.9,29.57,NE,48,1.0,5.0,-999,-99.99,,,-99.99,,2013-04-25 19:02:00,
2013-04-25 11:12:00,39.0,-99.9,29.57,NE,41,4.0,7.0,-999,-99.99,,,-99.99,,2013-04-25 19:12:00,
2013-04-25 11:21:00,39.0,-99.9,29.57,NNE,21,4.0,5.0,-999,-99.99,,,-99.99,,2013-04-25 19:21:00,
2013-04-25 11:32:00,39.0,-99.9,29.57,NE,36,4.0,6.0,-999,-99.99,,,-99.99,,2013-04-25 19:32:00,
2013-04-25 11:42:00,38.0,-99.9,29.56,ESE,120,2.0,3.0,-999,-99.99,,,-99.99,,2013-04-25 19:42:00,
2013-04-25 11:52:00,38.0,-99.9,29.56,SW,234,2.0,3.0,-999,-99.99,,,-99.99,,2013-04-25 19:52:00,
2013-04-25 12:02:00,38.0,-99.9,29.57,West,275,4.0,5.0,-999,-99.99,,,-99.99,,2013-04-25 20:02:00,
2013-04-25 12:12:00,38.0,-99.9,29.57,WNW,301,4.0,6.0,-999,-99.99,,,-99.99,,2013-04-25 20:12:00,
2013-04-25 12:22:00,38.0,-99.9,29.57,West,268,4.0,5.0,-999,-99.99,,,-99.99,,2013-04-25 20:22:00,
2013-04-25 12:32:00,38.0,-99.9,29.57,West,266,3.0,4.0,-999,-99.99,,,-99.99,,2013-04-25 20:32:00,
2013-04-25 12:43:00,38.0,-99.9,29.56,NNE,18,3.0,6.0,-999,-99.99,,,-99.99,,2013-04-25 20:43:00,
2013-04-25 12:52:00,38.0,-99.9,29.56,NE,41,3.0,4.0,-999,-99.99,,,-99.99,,2013-04-25 20:52:00,
2013-04-25 13:01:00,38.0,-99.9,29.55,ENE,63,2.0,3.0,-999,-99.99,,,-99.99,,2013-04-25 21:01:00,
2013-04-25 13:11:00,38.0,-99.9,29.55,SW,221,1.0,3.0,-999,-99.99,,,-99.99,,2013-04-25 21:11:00,
2013-04-25 13:22:00,38.0,-99.9,29.55,South,173,-999.0,3.0,-999,-99.99,,,-99.99,,2013-04-25 21:22:00,
2013-04-25 13:33:00,38.0,-99.9,29.55,SE,137,-999.0,0.0,-999,-99.99,,,-99.99,,2013-04-25 21:33:00,
2013-04-25 13:42:00,38.0,-99.9,29.55,North,-999,-999.0,-999.0,-999,-99.99,,,-99.99,,2013-04-25 21:42:00,
2013-04-25 13:53:00,39.0,-99.9,29.55,SE,143,-999.0,0.0,-999,-99.99,,,-99.99,,2013-04-25 21:53:00,
2013-04-25 14:03:00,39.0,-99.9,29.55,North,349,2.0,4.0,-999,-99.99,,,-99.99,,2013-04-25 22:03:00,
2013-04-25 14:12:00,38.0,-99.9,29.55,NW,306,4.0,6.0,-999,-99.99,,,-99.99,,2013-04-25 22:12:00,
2013-04-25 14:22:00,38.0,-99.9,29.55,West,281,5.0,6.0,-999,-99.99,,,-99.99,,2013-04-25 22:22:00,
2013-04-25 14:33:00,38.0,-99.9,29.55,NNW,345,3.0,5.0,-999,-99.99,,,-99.99,,2013-04-25 22:33:00,
2013-04-25 14:42:00,38.0,-99.9,29.55,NW,309,4.0,5.0,-999,-99.99,,,-99.99,,2013-04-25 22:42:00,
2013-04-25 14:53:00,38.0,-99.9,29.55,NW,326,6.0,8.0,-999,-99.99,,,-99.99,,2013-04-25 22:53:00,
2013-04-25 15:02:00,38.0,-99.9,29.55,WNW,300,5.0,8.0,-999,-99.99,,,-99.99,,2013-04-25 23:02:00,
2013-04-25 15:12:00,38.0,-99.9,29.55,NW,309,3.0,8.0,-999,-99.99,,,-99.99,,2013-04-25 23:12:00,
2013-04-25 15:22:00,38.0,-99.9,29.55,NW,317,4.0,8.0,-999,-99.99,,,-99.99,,2013-04-25 23:22:00,
2013-04-25 15:32:00,38.0,-99.9,29.55,WNW,297,4.0,7.0,-999,-99.99,,,-99.99,,2013-04-25 23:32:00,
2013-04-25 15:42:00,38.0,-99.9,29.55,NW,322,3.0,5.0,-999,-99.99,,,-99.99,,2013-04-25 23:42:00,
2013-04-25 15:52:00,38.0,-99.9,29.55,WNW,294,3.0,6.0,-999,-99.99,,,-99.99,,2013-04-25 23:52:00,
2013-04-25 16:01:00,38.0,-99.9,29.55,NNW,333,4.0,4.0,-999,-99.99,,,-99.99,,2013-04-26 00:01:00,
2013-04-25 16:11:00,38.0,-99.9,29.55,NW,320,4.0,6.0,-999,-99.99,,,-99.99,,2013-04-26 00:11:00,
2013-04-25 16:22:00,39.0,-99.9,29.55,WNW,300,2.0,4.0,-999,-99.99,,,-99.99,,2013-04-26 00:22:00,
2013-04-25 16:32:00,39.0,-99.9,29.55,NW,321,1.0,4.0,-999,-99.99,,,-99.99,,2013-04-26 00:32:00,
2013-04-25 16:42:00,39.0,-99.9,29.54,West,266,4.0,6.0,-999,-99.99,,,-99.99,,2013-04-26 00:42:00,
2013-04-25 16:52:00,39.0,-99.9,29.54,West,278,3.0,4.0,-999,-99.99,,,-99.99,,2013-04-26 00:52:00,
2013-04-25 17:01:00,39.0,-99.9,29.54,NW,306,1.0,4.0,-999,-99.99,,,-99.99,,2013-04-26 01:01:00,
2013-04-25 17:11:00,39.0,-99.9,29.54,WNW,299,2.0,2.0,-999,-99.99,,,-99.99,,2013-04-26 01:11:00,
2013-04-25 17:22:00,39.0,-99.9,29.54,SW,236,1.0,3.0,-999,-99.99,,,-99.99,,2013-04-26 01:22:00,
2013-04-25 17:32:00,38.0,-99.9,29.54,West,259,1.0,2.0,-999,-99.99,,,-99.99,,2013-04-26 01:32:00,
2013-04-25 17:42:00,39.0,-99.9,29.54,SW,236,1.0,2.0,-999,-99.99,,,-99.99,,2013-04-26 01:42:00,
2013-04-25 17:52:00,39.0,-99.9,29.54,WSW,253,1.0,2.0,-999,-99.99,,,-99.99,,2013-04-26 01:52:00,
2013-04-25 18:02:00,39.0,-99.9,29.54,SSW,213,1.0,2.0,-999,-99.99,,,-99.99,,2013-04-26 02:02:00,
2013-04-25 18:12:00,39.0,-99.9,29.54,SSE,159,-999.0,1.0,-999,-99.99,,,-99.99,,2013-04-26 02:12:00,
2013-04-25 18:22:00,39.0,-99.9,29.54,North,-999,-999.0,-999.0,-999,-99.99,,,-99.99,,2013-04-26 02:22:00,
2013-04-25 18:32:00,39.0,-99.9,29.54,SSW,194,2.0,2.0,-999,-99.99,,,-99.99,,2013-04-26 02:32:00,
2013-04-25 18:42:00,39.0,-99.9,29.54,SE,146,1.0,2.0,-999,-99.99,,,-99.99,,2013-04-26 02:42:00,
2013-04-25 18:52:00,39.0,-99.9,29.54,SE,141,2.0,2.0,-999,-99.99,,,-99.99,,2013-04-26 02:52:00,
2013-04-25 19:01:00,39.0,-99.9,29.55,ESE,122,3.0,3.0,-999,-99.99,,,-99.99,,2013-04-26 03:01:00,
2013-04-25 19:11:00,39.0,-99.9,29.54,SE,135,3.0,3.0,-999,-99.99,,,-99.99,,2013-04-26 03:11:00,
2013-04-25 19:22:00,39.0,-99.9,29.55,SE,141,3.0,3.0,-999,-99.99,,,-99.99,,2013-04-26 03:22:00,
2013-04-25 19:33:00,39.0,-99.9,29.54,SE,139,2.0,3.0,-999,-99.99,,,-99.99,,2013-04-26 03:33:00,
2013-04-25 19:43:00,39.0,-99.9,29.54,SE,142,3.0,3.0,-999,-99.99,,,-99.99,,2013-04-26 03:43:00,
2013-04-25 19:53:00,39.0,-99.9,29.54,SE,125,3.0,3.0,-999,-99.99,,,-99.99,,2013-04-26 03:53:00,
2013-04-25 20:03:00,39.0,-99.9,29.54,ESE,121,2.0,3.0,-999,-99.99,,,-99.99,,2013-04-26 04:03:00,
2013-04-25 20:12:00,39.0,-99.9,29.54,SSE,152,3.0,4.0,-999,-99.99,,,-99.99,,2013-04-26 04:12:00,
2013-04-25 20:23:00,39.0,-99.9,29.54,SSE,158,3.0,4.0,-999,-99.99,,,-99.99,,2013-04-26 04:23:00,
2013-04-25 20:33:00,39.0,-99.9,29.54,ESE,114,2.0,2.0,-999,-99.99,,,-99.99,,2013-04-26 04:33:00,
2013-04-25 20:43:00,39.0,-99.9,29.53,ESE,110,1.0,2.0,-999,-99.99,,,-99.99,,2013-04-26 04:43:00,
2013-04-25 20:53:00,39.0,-99.9,29.53,SSE,150,3.0,3.0,-999,-99.99,,,-99.99,,2013-04-26 04:53:00,
2013-04-25 21:02:00,39.0,-99.9,29.53,SE,145,3.0,4.0,-999,-99.99,,,-99.99,,2013-04-26 05:02:00,
2013-04-25 21:13:00,39.0,-99.9,29.53,SE,127,2.0,3.0,-999,-99.99,,,-99.99,,2013-04-26 05:13:00,
2013-04-25 21:22:00,39.0,-99.9,29.53,SE,130,1.0,3.0,-999,-99.99,,,-99.99,,2013-04-26 05:22:00,
2013-04-25 21:32:00,39.0,-99.9,29.53,SSE,159,-999.0,2.0,-999,-99.99,,,-99.99,,2013-04-26 05:32:00,
2013-04-25 21:42:00,39.0,-99.9,29.53,South,174,2.0,5.0,-999,-99.99,,,-99.99,,2013-04-26 05:42:00,
2013-04-25 21:52:00,39.0,-99.9,29.53,SE,128,3.0,4.0,-999,-99.99,,,-99.99,,2013-04-26 05:52:00,
2013-04-25 22:02:00,39.0,-99.9,29.53,East,92,3.0,4.0,-999,-99.99,,,-99.99,,2013-04-26 06:02:00,
2013-04-25 22:12:00,39.0,-99.9,29.53,ESE,120,3.0,6.0,-999,-99.99,,,-99.99,,2013-04-26 06:12:00,
2013-04-25 22:22:00,39.0,-99.9,29.53,SE,141,-999.0,2.0,-999,-99.99,,,-99.99,,2013-04-26 06:22:00,
2013-04-25 22:32:00,39.0,-99.9,29.53,North,-999,-999.0,-999.0,-999,-99.99,,,-99.99,,2013-04-26 06:32:00,
2013-04-25 22:42:00,39.0,-99.9,29.53,NE,46,1.0,2.0,-999,-99.99,,,-99.99,,2013-04-26 06:42:00,
2013-04-25 22:52:00,39.0,-99.9,29.53,East,93,1.0,2.0,-999,-99.99,,,-99.99,,2013-04-26 06:52:00,
2013-04-25 23:02:00,39.0,-99.9,29.53,East,97,2.0,4.0,-999,-99.99,,,-99.99,,2013-04-26 07:02:00,
2013-04-25 23:12:00,39.0,-99.9,29.53,ENE,76,2.0,5.0,-999,-99.99,,,-99.99,,2013-04-26 07:12:00,
2013-04-25 23:22:00,39.0,-99.9,29.53,ENE,73,2.0,9.0,-999,-99.99,,,-99.99,,2013-04-26 07:22:00,
2013-04-25 23:32:00,38.0,-99.9,29.53,ENE,65,2.0,5.0,-999,-99.99,,,-99.99,,2013-04-26 07:32:00,
2013-04-25 23:42:00,38.0,-99.9,29.53,NNE,27,3.0,5.0,-999,-99.99,,,-99.99,,2013-04-26 07:42:00,
2013-04-25 23:52:00,38.0,-99.9,29.53,ENE,67,3.0,4.0,-999,-99.99,,,-99.99,,2013-04-26 07:52:00,